EW7774 Weather Reports


Display with metric or nautical units.
time (UTC)temp
F
wind
direction
speed
MPH
gust
MPH
rain 1hr
in
rain 24hr
in
rain mn
in
humidity
%
barometer
mb
20260901222826 88 181 0.0 0.0 0.00 0.00 0.00 73 1013.8
20260901222525 88 0 0.0 0.0 0.00 0.00 0.00 72 1014.3
20260901222318 89 181 0.0 0.0 0.00 0.00 0.00 73 1013.8
20260901222028 88 0 0.0 0.0 0.00 0.00 0.00 72 1014.4
20260901221852 89 181 0.0 0.0 0.00 0.00 0.00 72 1013.9
20260901221546 89 0 0.0 0.0 0.00 0.00 0.00 71 1014.4
20260901221321 89 181 0.0 0.0 0.00 0.00 0.00 71 1013.9
20260901221028 89 0 0.0 0.0 0.00 0.00 0.00 70 1014.4
20260901220832 90 181 0.0 0.0 0.00 0.00 0.00 72 1013.8
20260901220526 89 0 0.0 0.0 0.00 0.00 0.00 71 1014.5
20260901220324 90 181 0.0 0.0 0.00 0.00 0.00 70 1013.9
20260901220104 90 0 0.0 0.0 0.00 0.00 0.00 67 1014.4
20260901215855 90 181 0.0 0.0 0.00 0.00 0.00 69 1013.9
20260901215527 89 0 0.0 0.0 0.00 0.00 0.00 66 1014.5
20260901215346 90 181 0.0 0.0 0.00 0.00 0.00 66 1013.9
20260901215026 89 0 0.0 0.0 0.00 0.00 0.00 66 1014.5
20260901214820 90 181 0.0 0.0 0.00 0.00 0.00 67 1013.9
20260901214545 89 0 0.0 0.0 0.00 0.00 0.00 66 1014.5
20260901214314 90 181 0.0 0.0 0.00 0.00 0.00 67 1014.0
20260901214028 89 0 0.0 2.0 0.00 0.00 0.00 69 1014.5
20260901213826 90 181 0.0 2.0 0.00 0.00 0.00 69 1014.0
20260901213525 89 0 0.0 2.0 0.00 0.00 0.00 67 1014.5
20260901213318 90 181 0.0 2.0 0.00 0.00 0.00 69 1014.0
20260901213047 89 0 0.0 1.0 0.00 0.00 0.00 68 1014.6
20260901212849 90 181 0.0 1.0 0.00 0.00 0.00 69 1013.9
20260901212525 90 0 0.0 1.0 0.00 0.00 0.00 67 1014.5
20260901212319 90 181 0.0 1.0 0.00 0.00 0.00 67 1013.9
20260901212025 90 0 0.0 1.0 0.00 0.00 0.00 66 1014.5
20260901211833 90 181 0.0 1.0 0.00 0.00 0.00 68 1014.0
20260901211544 90 0 0.0 1.0 0.00 0.00 0.00 67 1014.6
20260901211327 91 181 0.0 0.0 0.00 0.00 0.00 67 1014.0
20260901211025 90 0 0.0 3.0 0.00 0.00 0.00 64 1014.6
20260901210839 91 181 0.0 3.0 0.00 0.00 0.00 66 1014.1
20260901210526 90 0 0.0 3.0 0.00 0.00 0.00 64 1014.6
20260901210330 91 181 0.0 3.0 0.00 0.00 0.00 64 1014.0
20260901210043 90 0 0.0 3.0 0.00 0.00 0.00 65 1014.6
20260901205843 91 181 0.0 3.0 0.00 0.00 0.00 64 1014.1
20260901205524 90 0 0.0 3.0 0.00 0.00 0.00 65 1014.7
20260901205322 91 181 0.0 3.0 0.00 0.00 0.00 65 1014.1
20260901205025 90 0 0.0 3.0 0.00 0.00 0.00 63 1014.7
20260901204814 91 181 0.0 3.0 0.00 0.00 0.00 66 1014.2
20260901204544 90 205 0.0 3.0 0.00 0.00 0.00 65 1014.7
20260901204328 91 180 0.0 3.0 0.00 0.00 0.00 66 1014.2
20260901204024 90 0 0.0 3.0 0.00 0.00 0.00 66 1014.7
20260901203819 91 188 0.0 3.0 0.00 0.00 0.00 66 1014.2
20260901203526 90 209 0.0 2.0 0.00 0.00 0.00 65 1014.7
20260901203313 90 190 0.0 2.0 0.00 0.00 0.00 66 1014.2
20260901203053 90 214 0.0 2.0 0.00 0.00 0.00 66 1014.8
20260901202829 91 190 0.0 2.0 0.00 0.00 0.00 67 1014.3
20260901202525 90 0 0.0 5.0 0.00 0.00 0.00 65 1014.9
20260901202325 91 188 0.0 5.0 0.00 0.00 0.00 64 1014.3
20260901202026 90 0 0.0 8.0 0.00 0.00 0.00 64 1014.9
20260901201821 91 186 2.0 7.0 0.00 0.00 0.00 66 1014.4
20260901201551 90 0 0.0 8.0 0.00 0.00 0.00 64 1015.0
20260901201318 91 169 0.0 7.0 0.00 0.00 0.00 64 1014.5
20260901201026 90 0 0.0 4.0 0.00 0.00 0.00 66 1015.0
20260901200825 91 7 0.0 3.0 0.00 0.00 0.00 67 1014.5
20260901200525 90 0 0.0 3.0 0.00 0.00 0.00 66 1015.0
20260901200311 91 7 1.0 3.0 0.00 0.00 0.00 64 1014.6
20260901200045 90 0 0.0 3.0 0.00 0.00 0.00 63 1015.1
20260901195820 91 315 0.0 2.0 0.00 0.00 0.00 67 1014.6
20260901195527 90 0 0.0 2.0 0.00 0.00 0.00 65 1015.1
20260901195329 91 325 0.0 2.0 0.00 0.00 0.00 65 1014.7
20260901195030 90 0 0.0 3.0 0.00 0.00 0.00 66 1015.2
20260901194838 91 185 0.0 3.0 0.00 0.00 0.00 64 1014.8
20260901194555 90 0 0.0 3.0 0.00 0.00 0.00 63 1015.3
20260901194333 91 153 0.0 3.0 0.00 0.00 0.00 64 1014.8
20260901194029 90 0 0.0 4.0 0.00 0.00 0.00 63 1015.3
20260901193822 91 317 0.0 4.0 0.00 0.00 0.00 65 1014.8
20260901193525 90 0 0.0 4.0 0.00 0.00 0.00 65 1015.3
20260901193314 91 174 1.0 4.0 0.00 0.00 0.00 65 1014.9
20260901193049 90 0 0.0 2.0 0.00 0.00 0.00 64 1015.4
20260901192829 91 219 0.0 2.0 0.00 0.00 0.00 66 1014.9
20260901192527 90 0 0.0 2.0 0.00 0.00 0.00 66 1015.4
20260901192321 90 215 0.0 2.0 0.00 0.00 0.00 65 1014.9
20260901192026 90 0 0.0 2.0 0.00 0.00 0.00 65 1015.4
20260901191816 90 233 0.0 0.0 0.00 0.00 0.00 65 1015.0
20260901191603 90 0 0.0 4.0 0.00 0.00 0.00 65 1015.5
20260901191327 90 229 0.0 4.0 0.00 0.00 0.00 67 1015.1
20260901191026 90 0 0.0 4.0 0.00 0.00 0.00 64 1015.7
20260901190820 91 229 0.0 4.0 0.00 0.00 0.00 63 1015.3
20260901190530 90 0 0.0 6.0 0.00 0.00 0.00 64 1015.9
20260901190317 91 286 0.0 5.0 0.00 0.00 0.00 63 1015.5
20260901190054 91 41 0.0 7.0 0.00 0.00 0.00 63 1016.0
20260901185831 91 73 0.0 6.0 0.00 0.00 0.00 62 1015.6
20260901185526 91 0 0.0 7.0 0.00 0.00 0.00 61 1016.0
20260901185323 92 13 2.0 6.0 0.00 0.00 0.00 61 1015.5
20260901185029 91 0 0.0 6.0 0.00 0.00 0.00 61 1015.8
20260901184816 91 165 2.0 5.0 0.00 0.00 0.00 61 1015.5
20260901184610 91 0 1.0 6.0 0.00 0.00 0.00 61 1015.9
20260901184351 91 286 1.0 6.0 0.00 0.00 0.00 61 1015.5
20260901184030 91 284 1.0 6.0 0.00 0.00 0.00 60 1015.9
20260901183844 91 171 0.0 6.0 0.00 0.00 0.00 63 1015.5
20260901183529 90 0 0.0 6.0 0.00 0.00 0.00 61 1016.0
20260901183315 91 163 1.0 6.0 0.00 0.00 0.00 61 1015.5
20260901183051 90 0 0.0 3.0 0.00 0.00 0.00 61 1015.9
20260901182847 91 204 0.0 3.0 0.00 0.00 0.00 62 1015.4
20260901182530 90 199 0.0 6.0 0.00 0.00 0.00 63 1015.8
20260901182318 90 174 0.0 6.0 0.00 0.00 0.00 62 1015.4
20260901182032 90 0 0.0 6.0 0.00 0.00 0.00 63 1015.7
20260901181833 90 260 1.0 6.0 0.00 0.00 0.00 64 1015.4
20260901181557 90 0 0.0 2.0 0.00 0.00 0.00 62 1015.8
20260901181327 90 282 1.0 2.0 0.00 0.00 0.00 63 1015.4
20260901181028 89 0 0.0 3.0 0.00 0.00 0.00 64 1015.8
20260901180819 90 256 1.0 3.0 0.00 0.00 0.00 64 1015.4
20260901180526 89 259 0.0 3.0 0.00 0.00 0.00 64 1015.8
20260901180332 90 252 1.0 3.0 0.00 0.00 0.00 64 1015.4
20260901180045 89 278 0.0 4.0 0.00 0.00 0.00 65 1015.7
20260901175827 90 251 0.0 2.0 0.00 0.00 0.00 66 1015.4
20260901175526 89 0 0.0 4.0 0.00 0.00 0.00 67 1015.7
20260901175321 90 188 0.0 4.0 0.00 0.00 0.00 67 1015.4
20260901175026 89 0 0.0 4.0 0.00 0.00 0.00 65 1015.9
20260901174814 90 296 0.0 3.0 0.00 0.00 0.00 68 1015.5
20260901174558 89 329 0.0 2.0 0.00 0.00 0.00 65 1015.9
20260901174351 90 179 0.0 2.0 0.00 0.00 0.00 67 1015.6
20260901174029 89 0 0.0 4.0 0.00 0.00 0.00 67 1015.9
20260901173822 89 179 0.0 5.0 0.00 0.00 0.00 68 1015.5
20260901173531 89 0 0.0 4.0 0.00 0.00 0.00 67 1015.9
20260901173319 89 16 1.0 5.0 0.00 0.00 0.00 67 1015.6
20260901173050 89 0 0.0 3.0 0.00 0.00 0.00 66 1016.0
20260901172816 90 106 0.0 3.0 0.00 0.00 0.00 67 1015.5
20260901172527 89 0 0.0 3.0 0.00 0.00 0.00 66 1016.0
20260901172350 90 189 0.0 3.0 0.00 0.00 0.00 65 1015.5
20260901172027 89 0 0.0 3.0 0.00 0.00 0.00 67 1015.9
20260901171824 90 318 1.0 3.0 0.00 0.00 0.00 67 1015.5
20260901171547 89 0 0.0 3.0 0.00 0.00 0.00 65 1016.0
20260901171321 90 282 0.0 3.0 0.00 0.00 0.00 66 1015.5
20260901171028 90 0 0.0 3.0 0.00 0.00 0.00 65 1016.0
20260901170833 90 279 0.0 3.0 0.00 0.00 0.00 70 1015.6
20260901170528 90 224 0.0 4.0 0.00 0.00 0.00 64 1016.1
20260901170324 90 270 0.0 4.0 0.00 0.00 0.00 65 1015.6
20260901170044 90 0 0.0 5.0 0.00 0.00 0.00 64 1016.2
20260901165839 90 213 1.0 5.0 0.00 0.00 0.00 65 1015.8
20260901165525 90 0 0.0 8.0 0.00 0.00 0.00 67 1016.2
20260901165333 90 13 2.0 8.0 0.00 0.00 0.00 68 1015.9
20260901165031 90 0 1.0 8.0 0.00 0.00 0.00 65 1016.3
20260901164826 90 189 0.0 2.0 0.00 0.00 0.00 67 1015.9
20260901164556 89 228 0.0 5.0 0.00 0.00 0.00 67 1016.4
20260901164326 90 202 0.0 4.0 0.00 0.00 0.00 69 1015.9
20260901164028 89 0 0.0 5.0 0.00 0.00 0.00 70 1016.5
20260901163816 89 269 0.0 5.0 0.00 0.00 0.00 70 1016.0
20260901163531 88 0 0.0 5.0 0.00 0.00 0.00 72 1016.6
20260901163333 88 177 0.0 2.0 0.00 0.00 0.00 71 1016.1
20260901163051 88 0 0.0 2.0 0.00 0.00 0.00 71 1016.5
20260901162825 88 180 0.0 2.0 0.00 0.00 0.00 70 1016.1
20260901162525 87 0 0.0 4.0 0.00 0.00 0.00 70 1016.6
20260901162319 88 253 0.0 4.0 0.00 0.00 0.00 70 1016.1
20260901162024 87 0 0.0 4.0 0.00 0.00 0.00 70 1016.6
20260901161832 88 216 0.0 4.0 0.00 0.00 0.00 70 1016.2
20260901161602 88 0 0.0 4.0 0.00 0.00 0.00 68 1016.8
20260901161324 88 262 0.0 2.0 0.00 0.00 0.00 69 1016.3
20260901161027 88 0 0.0 6.0 0.00 0.00 0.00 68 1016.8
20260901160853 89 256 0.0 5.0 0.00 0.00 0.00 69 1016.3
20260901160528 88 0 1.0 6.0 0.00 0.00 0.00 67 1016.7
20260901160323 89 181 2.0 6.0 0.00 0.00 0.00 67 1016.4
20260901160104 88 0 1.0 6.0 0.00 0.00 0.00 67 1016.8
20260901155833 89 313 2.0 6.0 0.00 0.00 0.00 68 1016.4
20260901155524 88 273 1.0 5.0 0.00 0.00 0.00 70 1017.0
20260901155326 89 275 1.0 5.0 0.00 0.00 0.00 69 1016.5
20260901155030 88 0 0.0 4.0 0.00 0.00 0.00 71 1017.0
20260901154818 88 50 0.0 5.0 0.00 0.00 0.00 70 1016.5
20260901154543 87 0 0.0 5.0 0.00 0.00 0.00 69 1017.0
20260901154334 87 349 1.0 5.0 0.00 0.00 0.00 74 1016.5
20260901154028 87 0 1.0 6.0 0.00 0.00 0.00 73 1017.1
20260901153826 87 1 2.0 5.0 0.00 0.00 0.00 73 1016.5
20260901153531 86 0 0.0 6.0 0.00 0.00 0.00 70 1017.1
20260901153321 87 208 0.0 6.0 0.00 0.00 0.00 71 1016.6
20260901153107 86 0 0.0 6.0 0.00 0.00 0.00 70 1017.2
20260901152836 86 199 0.0 3.0 0.00 0.00 0.00 72 1016.8
20260901152524 85 306 0.0 3.0 0.00 0.00 0.00 72 1017.3
20260901152327 86 206 0.0 3.0 0.00 0.00 0.00 73 1016.9
20260901152028 85 0 0.0 3.0 0.00 0.00 0.00 73 1017.4
20260901151820 85 205 0.0 3.0 0.00 0.00 0.00 73 1017.0
20260901151544 85 0 0.0 1.0 0.00 0.00 0.00 73 1017.4
20260901151333 85 280 0.0 1.0 0.00 0.00 0.00 73 1016.9
20260901151024 85 0 0.0 3.0 0.00 0.00 0.00 73 1017.5
20260901150824 85 296 0.0 3.0 0.00 0.00 0.00 73 1016.9
20260901150531 84 0 0.0 3.0 0.00 0.00 0.00 74 1017.4
20260901150318 85 296 0.0 3.0 0.00 0.00 0.00 75 1016.9
20260901150043 84 0 0.0 1.0 0.00 0.00 0.00 76 1017.4
20260901145833 85 260 0.0 1.0 0.00 0.00 0.00 78 1016.9
20260901145529 84 0 0.0 2.0 0.00 0.00 0.00 76 1017.4
20260901145327 85 318 0.0 2.0 0.00 0.00 0.00 77 1016.9
20260901145028 84 0 0.0 2.0 0.00 0.00 0.00 76 1017.4
20260901144823 84 319 0.0 2.0 0.00 0.00 0.00 76 1016.9
20260901144546 84 0 0.0 2.0 0.00 0.00 0.00 76 1017.3
20260901144318 84 17 0.0 2.0 0.00 0.00 0.00 76 1016.9
20260901144029 84 0 0.0 2.0 0.00 0.00 0.00 78 1017.4
20260901143833 84 11 0.0 2.0 0.00 0.00 0.00 77 1016.9
20260901143528 83 0 0.0 4.0 0.00 0.00 0.00 78 1017.3
20260901143326 84 275 0.0 4.0 0.00 0.00 0.00 78 1017.0
20260901143111 83 0 0.0 4.0 0.00 0.00 0.00 77 1017.5
20260901142840 83 246 0.0 4.0 0.00 0.00 0.00 80 1017.0
20260901142527 82 0 0.0 4.0 0.00 0.00 0.00 80 1017.6
20260901142352 82 244 0.0 4.0 0.00 0.00 0.00 82 1017.0
20260901142026 81 0 0.0 1.0 0.00 0.00 0.00 82 1017.6
20260901141824 82 192 0.0 1.0 0.00 0.00 0.00 83 1017.0
20260901141546 81 0 0.0 1.0 0.00 0.00 0.00 82 1017.6
20260901141319 81 192 0.0 0.0 0.00 0.00 0.00 83 1017.1
20260901141028 80 0 0.0 2.0 0.00 0.00 0.00 83 1017.6
20260901140832 81 192 0.0 2.0 0.00 0.00 0.00 83 1017.0
20260901140528 80 0 0.0 2.0 0.00 0.00 0.00 83 1017.6
20260901140323 81 192 0.0 2.0 0.00 0.00 0.00 85 1017.0
20260901140048 80 0 0.0 0.0 0.00 0.00 0.00 83 1017.6
20260901135835 80 214 0.0 0.0 0.00 0.00 0.00 83 1017.0
20260901135525 79 0 0.0 0.0 0.00 0.00 0.00 84 1017.6
20260901135329 80 212 0.0 0.0 0.00 0.00 0.00 85 1017.0
20260901135028 79 0 0.0 1.0 0.00 0.00 0.00 86 1017.6
20260901134820 80 212 0.0 1.0 0.00 0.00 0.00 87 1017.0
20260901134543 79 0 0.0 1.0 0.00 0.00 0.00 86 1017.6
20260901134314 79 212 0.0 1.0 0.00 0.00 0.00 85 1017.0
20260901134026 79 0 0.0 0.0 0.00 0.00 0.00 86 1017.6
20260901133826 79 115 0.0 0.0 0.00 0.00 0.00 87 1017.0
20260901133523 78 0 0.0 0.0 0.00 0.00 0.00 87 1017.6
20260901133338 79 115 0.0 0.0 0.00 0.00 0.00 87 1017.0
20260901133045 78 0 0.0 0.0 0.00 0.00 0.00 87 1017.6
20260901132829 78 115 0.0 0.0 0.00 0.00 0.00 89 1017.0
20260901132526 77 0 0.0 0.0 0.00 0.00 0.00 90 1017.6
20260901132320 77 115 0.0 0.0 0.00 0.00 0.00 93 1017.1
20260901132028 77 0 0.0 0.0 0.00 0.00 0.00 92 1017.6
20260901131851 77 115 0.0 0.0 0.00 0.00 0.00 94 1017.0
20260901131547 76 0 0.0 0.0 0.00 0.00 0.00 94 1017.7
20260901131342 77 115 0.0 0.0 0.00 0.00 0.00 95 1017.1
20260901131027 76 0 0.0 0.0 0.00 0.00 0.00 95 1017.7
20260901130830 76 115 0.0 0.0 0.00 0.00 0.00 95 1017.2
20260901130524 76 0 0.0 0.0 0.00 0.00 0.00 95 1017.8
20260901130322 76 115 0.0 0.0 0.00 0.00 0.00 96 1017.3
20260901130043 75 0 0.0 0.0 0.00 0.00 0.00 97 1017.8
20260901125819 75 115 0.0 0.0 0.00 0.00 0.00 97 1017.2
20260901125526 75 0 0.0 0.0 0.00 0.00 0.00 97 1017.8
20260901125332 75 115 0.0 0.0 0.00 0.00 0.00 97 1017.3
20260901125023 74 0 0.0 0.0 0.00 0.00 0.00 97 1017.9
20260901124827 75 115 0.0 0.0 0.00 0.00 0.00 97 1017.4
20260901124549 74 0 0.0 0.0 0.00 0.00 0.00 97 1018.0
20260901124318 74 115 0.0 0.0 0.00 0.00 0.00 97 1017.4
20260901124024 74 0 0.0 0.0 0.00 0.00 0.00 97 1018.1
20260901123847 74 115 0.0 0.0 0.00 0.00 0.00 97 1017.5
20260901123525 74 0 0.0 0.0 0.00 0.00 0.00 97 1018.1
20260901123318 74 115 0.0 0.0 0.00 0.00 0.00 97 1017.5
20260901123051 73 0 0.0 0.0 0.00 0.00 0.00 97 1018.2
20260901122830 74 115 0.0 0.0 0.00 0.00 0.00 97 1017.6
20260901122525 73 0 0.0 0.0 0.00 0.00 0.00 97 1018.2
20260901122321 74 115 0.0 0.0 0.00 0.00 0.00 97 1017.6
20260901122025 73 0 0.0 0.0 0.00 0.00 0.00 97 1018.2
20260901121813 74 115 0.0 0.0 0.00 0.00 0.00 97 1017.6
20260901121545 73 0 0.0 0.0 0.00 0.00 0.00 97 1018.2
20260901121328 73 115 0.0 0.0 0.00 0.00 0.00 97 1017.5
20260901121027 73 0 0.0 0.0 0.00 0.00 0.00 97 1018.1
20260901120818 73 115 0.0 0.0 0.00 0.00 0.00 97 1017.5
20260901120523 72 0 0.0 0.0 0.00 0.00 0.00 97 1018.0
20260901120317 73 115 0.0 0.0 0.00 0.00 0.00 97 1017.4
20260901120050 72 0 0.0 0.0 0.00 0.00 0.00 96 1017.9
20260901115830 73 0.0 0.0 0.00 0.00 0.00 97 1017.3
20260901115524 72 0.0 0.0 0.00 0.00 0.00 96 1017.8
20260901115322 72 0.0 0.0 0.00 0.00 0.00 97 1017.2
20260901115025 72 0.0 0.0 0.00 0.00 0.00 96 1017.7
20260901114817 72 0.0 0.0 0.00 0.00 0.00 97 1017.1
20260901114547 72 0.0 0.0 0.00 0.00 0.00 96 1017.7
20260901114331 72 0.0 0.0 0.00 0.00 0.00 97 1017.1
20260901114025 72 0.0 0.0 0.00 0.00 0.00 96 1017.6
20260901113824 72 0.0 0.0 0.00 0.00 0.00 97 1017.1
20260901113525 72 0.0 0.0 0.00 0.00 0.00 96 1017.6
20260901113316 72 0.0 0.0 0.00 0.00 0.00 97 1017.0
20260901113053 72 0.0 0.0 0.00 0.00 0.00 96 1017.6
20260901112828 72 0.0 0.0 0.00 0.00 0.00 97 1017.0
20260901112525 72 0.0 0.0 0.00 0.00 0.00 97 1017.5
20260901112322 72 0.0 0.0 0.00 0.00 0.00 97 1016.9
20260901112025 72 0.0 0.0 0.00 0.00 0.00 97 1017.5
20260901111833 72 0.0 0.0 0.00 0.00 0.00 97 1017.0
20260901111553 71 0.0 0.0 0.00 0.00 0.00 96 1017.5
20260901111345 72 0.0 0.0 0.00 0.00 0.00 97 1016.9
20260901111026 71 0.0 0.0 0.00 0.00 0.00 96 1017.5
20260901110813 72 0.0 0.0 0.00 0.00 0.00 97 1017.0
20260901110524 71 0.0 0.0 0.00 0.00 0.00 96 1017.5
20260901110328 72 0.0 0.0 0.00 0.00 0.00 97 1017.0
20260901110045 71 0.0 0.0 0.00 0.00 0.00 96 1017.6
20260901105819 72 0.0 0.0 0.00 0.00 0.00 97 1017.0
20260901105525 71 0.0 0.0 0.00 0.00 0.00 96 1017.6
20260901105330 72 0.0 0.0 0.00 0.00 0.00 97 1017.0
20260901105026 71 0.0 0.0 0.00 0.00 0.00 96 1017.5
20260901104822 72 0.0 0.0 0.00 0.00 0.00 97 1016.9
20260901104543 71 0.0 0.0 0.00 0.00 0.00 96 1017.4
20260901104332 71 0.0 0.0 0.00 0.00 0.00 97 1016.9
20260901104025 71 0.0 0.0 0.00 0.00 0.00 96 1017.4
20260901103823 71 0.0 0.0 0.00 0.00 0.00 97 1016.9
20260901103525 71 0.0 0.0 0.00 0.00 0.00 96 1017.5
20260901103317 71 0.0 0.0 0.00 0.00 0.00 97 1016.9
20260901103052 71 0.0 0.0 0.00 0.00 0.00 96 1017.4
20260901102851 71 0.0 0.0 0.00 0.00 0.00 97 1016.8
20260901102527 71 0.0 0.0 0.00 0.00 0.00 96 1017.3
20260901102325 71 0.0 0.0 0.00 0.00 0.00 97 1016.8
20260901102026 71 0.0 0.0 0.00 0.00 0.00 96 1017.3
20260901101838 71 0.0 0.0 0.00 0.00 0.00 97 1016.7
20260901101548 71 0.0 0.0 0.00 0.00 0.00 96 1017.2
20260901101333 71 0.0 0.0 0.00 0.00 0.00 97 1016.7
20260901101024 71 0.0 0.0 0.00 0.00 0.00 96 1017.2
20260901100825 71 0.0 0.0 0.00 0.00 0.00 97 1016.7
20260901100528 71 0.0 0.0 0.00 0.00 0.00 96 1017.2
20260901100341 71 0.0 0.0 0.00 0.00 0.00 97 1016.7
20260901100049 71 0.0 0.0 0.00 0.00 0.00 96 1017.3
20260901095833 71 0.0 0.0 0.00 0.00 0.00 96 1016.7
20260901095525 71 0.0 0.0 0.00 0.00 0.00 96 1017.2
20260901095329 71 0.0 0.0 0.00 0.00 0.00 96 1016.6
20260901095028 71 0.0 0.0 0.00 0.00 0.00 96 1017.1
20260901094826 71 0.0 0.0 0.00 0.00 0.00 96 1016.7
20260901094543 71 0.0 0.0 0.00 0.00 0.00 96 1017.2
20260901094327 71 0.0 0.0 0.00 0.00 0.00 96 1016.8
20260901094027 71 0.0 0.0 0.00 0.00 0.00 96 1017.2
20260901093821 71 0.0 0.0 0.00 0.00 0.00 96 1016.7
20260901093524 71 0.0 0.0 0.00 0.00 0.00 96 1017.2
20260901093316 71 0.0 0.0 0.00 0.00 0.00 96 1016.6
20260901093050 71 0.0 0.0 0.00 0.00 0.00 96 1017.2
20260901092850 71 0.0 0.0 0.00 0.00 0.00 96 1016.6
20260901092533 71 0.0 0.0 0.00 0.00 0.00 96 1017.2
20260901092326 71 0.0 0.0 0.00 0.00 0.00 96 1016.7
20260901092025 71 0.0 0.0 0.00 0.00 0.00 96 1017.3
20260901091841 71 0.0 0.0 0.00 0.00 0.00 96 1016.8
20260901091543 71 0.0 0.0 0.00 0.00 0.00 96 1017.5
20260901091333 72 0.0 0.0 0.00 0.00 0.00 96 1017.0
20260901091027 71 0.0 0.0 0.00 0.00 0.00 96 1017.6
20260901090826 72 0.0 0.0 0.00 0.00 0.00 96 1017.0
20260901090525 71 0.0 0.0 0.00 0.00 0.00 96 1017.5
20260901090320 72 0.0 0.0 0.00 0.00 0.00 96 1017.0
20260901090043 71 0.0 0.0 0.00 0.00 0.00 96 1017.5
20260901085833 72 0.0 0.0 0.00 0.00 0.00 96 1017.0
20260901085524 71 0.0 0.0 0.00 0.00 0.00 95 1017.6
20260901085346 72 0.0 0.0 0.00 0.00 0.00 96 1017.0
20260901085024 71 0.0 0.0 0.00 0.00 0.00 95 1017.5
20260901084821 72 0.0 0.0 0.00 0.00 0.00 96 1016.9
20260901084543 71 0.0 0.0 0.00 0.00 0.00 95 1017.5
20260901084315 72 0.0 0.0 0.00 0.00 0.00 96 1016.9
20260901084025 71 0.0 0.0 0.00 0.00 0.00 95 1017.4
20260901083828 72 0.0 0.0 0.00 0.00 0.00 96 1016.9
20260901083527 71 0.0 0.0 0.00 0.00 0.00 95 1017.4
20260901083324 72 0.0 0.0 0.00 0.00 0.00 96 1016.8
20260901083048 71 0.0 0.0 0.00 0.00 0.00 95 1017.4
20260901082814 72 0.0 0.0 0.00 0.00 0.00 96 1016.9
20260901082528 71 0.0 0.0 0.00 0.00 0.00 96 1017.4
20260901082326 72 0.0 0.0 0.00 0.00 0.00 96 1016.9
20260901082025 72 0.0 0.0 0.00 0.00 0.00 95 1017.4
20260901081819 72 0.0 0.0 0.00 0.00 0.00 96 1016.9
20260901081543 72 0.0 0.0 0.00 0.00 0.00 96 1017.4
20260901081314 72 0.0 0.0 0.00 0.00 0.00 96 1016.9
20260901081025 72 0.0 0.0 0.00 0.00 0.00 95 1017.5
20260901080828 72 0.0 0.0 0.00 0.00 0.00 96 1016.9
20260901080525 72 0.0 0.0 0.00 0.00 0.00 96 1017.4
20260901080342 72 0.0 0.0 0.00 0.00 0.00 96 1016.9
20260901080046 72 0.0 0.0 0.00 0.00 0.00 95 1017.5
20260901075815 72 0.0 0.0 0.00 0.00 0.00 96 1016.9
20260901075525 72 0.0 0.0 0.00 0.00 0.00 95 1017.4
20260901075326 72 0.0 0.0 0.00 0.00 0.00 96 1016.9
20260901075025 72 0.0 0.0 0.00 0.00 0.00 96 1017.4
20260901074817 73 0.0 0.0 0.00 0.00 0.00 96 1016.9
20260901074545 72 0.0 0.0 0.00 0.00 0.00 95 1017.4
20260901074328 73 0.0 0.0 0.00 0.00 0.00 96 1016.9
20260901074023 72 0.0 0.0 0.00 0.00 0.00 95 1017.3
20260901073822 73 0.0 0.0 0.00 0.00 0.00 96 1016.9
20260901073526 72 0.0 0.0 0.00 0.00 0.00 96 1017.4
20260901073317 73 0.0 0.0 0.00 0.00 0.00 96 1016.9
20260901073047 72 0.0 0.0 0.00 0.00 0.00 96 1017.4
20260901072828 73 0.0 0.0 0.00 0.00 0.00 96 1017.0
20260901072524 72 0.0 0.0 0.00 0.00 0.00 96 1017.5
20260901072322 73 0.0 0.0 0.00 0.00 0.00 96 1017.0
20260901072027 72 0.0 0.0 0.00 0.00 0.00 96 1017.5
20260901071815 73 0.0 0.0 0.00 0.00 0.00 96 1017.0
20260901071545 72 0.0 0.0 0.00 0.00 0.00 96 1017.6
20260901071349 73 0.0 0.0 0.00 0.00 0.00 96 1017.1
20260901071027 72 0.0 0.0 0.00 0.00 0.00 96 1017.7
20260901070822 73 0.0 0.0 0.00 0.00 0.00 96 1017.1
20260901070528 72 0.0 0.0 0.00 0.00 0.00 96 1017.7
20260901070332 73 0.0 0.0 0.00 0.00 0.00 96 1017.2
20260901070049 72 0.0 0.0 0.00 0.00 0.00 96 1017.7
20260901065824 73 0.0 0.0 0.00 0.00 0.00 96 1017.2
20260901065528 72 0.0 0.0 0.00 0.00 0.00 96 1017.8
20260901065340 73 0.0 0.0 0.00 0.00 0.00 96 1017.3
20260901065028 72 0.0 0.0 0.00 0.00 0.00 96 1017.7
20260901064833 73 0.0 0.0 0.00 0.00 0.00 96 1017.3
20260901064549 72 0.0 0.0 0.00 0.00 0.00 96 1017.9
20260901064325 73 0.0 0.0 0.00 0.00 0.00 96 1017.3
20260901064031 72 0.0 0.0 0.00 0.00 0.00 96 1017.9
20260901063817 73 0.0 0.0 0.00 0.00 0.00 96 1017.4
20260901063525 72 0.0 0.0 0.00 0.00 0.00 95 1018.0
20260901063329 73 0.0 0.0 0.00 0.00 0.00 96 1017.4
20260901063100 72 0.0 0.0 0.00 0.00 0.00 96 1018.0
20260901062821 73 0.0 0.0 0.00 0.00 0.00 96 1017.4
20260901062524 72 0.0 0.0 0.00 0.00 0.00 95 1018.0
20260901062355 73 0.0 0.0 0.00 0.00 0.00 96 1017.5
20260901062026 72 0.0 0.0 0.00 0.00 0.00 95 1018.1
20260901061847 73 0.0 0.0 0.00 0.00 0.00 96 1017.5
20260901061557 72 0.0 0.0 0.00 0.00 0.00 95 1018.0
20260901061317 73 0.0 0.0 0.00 0.00 0.00 96 1017.5
20260901061028 72 0.0 0.0 0.00 0.00 0.00 95 1018.1
20260901060827 73 0.0 0.0 0.00 0.00 0.00 96 1017.6
20260901060528 72 0.0 0.0 0.00 0.00 0.00 95 1018.1
20260901060047 72 0.0 0.0 0.00 0.00 0.00 95 1018.0
20260901055827 73 0.0 0.0 0.00 0.00 0.00 96 1017.4
20260901055524 72 0.0 0.0 0.00 0.00 0.00 95 1018.0
20260901055339 73 0.0 0.0 0.00 0.00 0.00 96 1017.4
20260901055025 72 0.0 0.0 0.00 0.00 0.00 95 1018.1
20260901054829 73 0.0 0.0 0.00 0.00 0.00 95 1017.6
20260901054545 72 0.0 0.0 0.00 0.00 0.00 95 1018.2
20260901054325 73 0.0 0.0 0.00 0.00 0.00 95 1017.6
20260901054024 72 0.0 0.0 0.00 0.00 0.00 95 1018.3
20260901053815 72 0.0 0.0 0.00 0.00 0.00 95 1017.7
20260901053528 72 0.0 0.0 0.00 0.00 0.00 95 1018.4
20260901053327 72 0.0 0.0 0.00 0.00 0.00 95 1017.9
20260901053105 72 0.0 0.0 0.00 0.00 0.00 95 1018.4
20260901052819 72 0.0 0.0 0.00 0.00 0.00 95 1017.7
20260901052525 72 0.0 0.0 0.00 0.00 0.00 95 1018.3
20260901052334 72 0.0 0.0 0.00 0.00 0.00 95 1017.7
20260901052024 72 0.0 0.0 0.00 0.00 0.00 95 1018.4
20260901051825 73 0.0 0.0 0.00 0.00 0.00 95 1017.9
20260901051544 72 0.0 0.0 0.00 0.00 0.00 95 1018.5
20260901051319 73 0.0 0.0 0.00 0.00 0.00 95 1017.9
20260901051025 72 0.0 0.0 0.00 0.00 0.00 95 1018.4
20260901050830 73 0.0 0.0 0.00 0.00 0.00 95 1017.9
20260901050524 72 0.0 0.0 0.00 0.00 0.00 95 1018.4
20260901050324 73 0.0 0.0 0.00 0.00 0.00 95 1017.9
20260901050044 72 0.0 0.0 0.00 0.00 0.00 95 1018.5
20260901045820 73 0.0 0.0 0.00 0.00 0.00 95 1018.0
20260901045526 72 0.0 0.0 0.00 0.00 0.00 95 1018.6
20260901045319 73 0.0 0.0 0.00 0.00 0.00 95 1018.1
20260901045028 72 0.0 0.0 0.00 0.00 0.00 95 1018.5
20260901044831 73 0.0 0.0 0.00 0.00 0.00 95 1018.1
20260901044600 72 0.0 0.0 0.00 0.00 0.00 95 1018.5
20260901044349 73 0.0 0.0 0.00 0.00 0.00 95 1018.1
20260901044025 72 0.0 0.0 0.00 0.00 0.00 95 1018.6
20260901043819 73 0.0 0.0 0.00 0.00 0.00 95 1018.1
20260901043525 72 0.0 0.0 0.00 0.00 0.00 95 1018.6
20260901043313 73 0.0 0.0 0.00 0.00 0.00 95 1018.2
20260901043045 72 0.0 0.0 0.00 0.00 0.00 95 1018.6
20260901042829 73 0.0 0.0 0.00 0.00 0.00 95 1018.3
20260901042525 72 0.0 0.0 0.00 0.00 0.00 95 1018.7
20260901042322 73 0.0 0.0 0.00 0.00 0.00 95 1018.3
20260901042025 72 0.0 0.0 0.00 0.00 0.00 95 1018.7
20260901041836 73 0.0 0.0 0.00 0.00 0.00 95 1018.3
20260901041543 72 0.0 0.0 0.00 0.00 0.00 95 1018.8
20260901041330 73 0.0 0.0 0.00 0.00 0.00 95 1018.3
20260901041025 72 0.0 0.0 0.00 0.00 0.00 95 1018.8
20260901040822 73 0.0 0.0 0.00 0.00 0.00 95 1018.3
20260901040527 72 0.0 0.0 0.00 0.00 0.00 95 1018.7
20260901040314 73 0.0 0.0 0.00 0.00 0.00 95 1018.3
20260901040048 72 0.0 0.0 0.00 0.00 0.00 95 1018.8
20260901035827 73 0.0 0.0 0.00 0.00 0.00 95 1018.3
20260901035525 72 0.0 0.0 0.00 0.00 0.00 94 1018.7
20260901035319 73 0.0 0.0 0.00 0.00 0.00 95 1018.4
20260901035023 72 0.0 0.0 0.00 0.00 0.00 94 1018.8
20260901034830 73 0.0 0.0 0.00 0.00 0.00 95 1018.3
20260901034549 72 0.0 0.0 0.00 0.00 0.00 94 1018.8
20260901034343 73 0.0 0.0 0.00 0.00 0.00 95 1018.4
20260901034028 72 0.0 0.0 0.00 0.00 0.00 94 1018.9
20260901033833 73 0.0 0.0 0.00 0.00 0.00 95 1018.3
20260901033524 73 0.0 0.0 0.00 0.00 0.00 94 1018.8
20260901033326 73 0.0 0.0 0.00 0.00 0.00 95 1018.3
20260901033045 73 0.0 0.0 0.00 0.00 0.00 94 1018.7
20260901032817 73 0.0 0.0 0.00 0.00 0.00 94 1018.3
20260901032524 73 0.0 0.0 0.00 0.00 0.00 94 1018.8
20260901032329 73 0.0 0.0 0.00 0.00 0.00 94 1018.3
20260901032026 73 0.0 0.0 0.00 0.00 0.00 94 1018.8
20260901031821 73 0.0 0.0 0.00 0.00 0.00 94 1018.4
20260901031555 73 0.0 0.0 0.00 0.00 0.00 94 1018.9
20260901031313 73 0.0 0.0 0.00 0.00 0.00 94 1018.4
20260901031026 73 0.0 0.0 0.00 0.00 0.00 94 1019.0
20260901030826 73 0.0 0.0 0.00 0.00 0.00 94 1018.5
20260901030526 73 0.0 0.0 0.00 0.00 0.00 94 1019.0
20260901030342 73 0.0 0.0 0.00 0.00 0.00 94 1018.5
20260901030044 73 0.0 0.0 0.00 0.00 0.00 94 1019.0
20260901025835 73 0.0 0.0 0.00 0.00 0.00 94 1018.4
20260901025529 73 0.0 0.0 0.00 0.00 0.00 94 1018.9
20260901025329 73 0.0 0.0 0.00 0.00 0.00 94 1018.4
20260901025024 73 0.0 0.0 0.00 0.00 0.00 93 1018.9
20260901024824 73 0.0 0.0 0.00 0.00 0.00 94 1018.4
20260901024553 73 0.0 0.0 0.00 0.00 0.00 93 1018.9
20260901024341 74 0.0 0.0 0.00 0.00 0.00 94 1018.4
20260901024029 73 0.0 0.0 0.00 0.00 0.00 93 1018.9
20260901023828 74 0.0 0.0 0.00 0.00 0.00 94 1018.4
20260901023525 73 0.0 0.0 0.00 0.00 0.00 93 1018.9
20260901023316 74 0.0 0.0 0.00 0.00 0.00 94 1018.5
20260901023048 73 0.0 0.0 0.00 0.00 0.00 93 1018.9
20260901022816 74 0.0 0.0 0.00 0.00 0.00 94 1018.5
20260901022526 73 0.0 0.0 0.00 0.00 0.00 93 1019.0
20260901022328 74 0.0 0.0 0.00 0.00 0.00 93 1018.5
20260901022025 73 0.0 0.0 0.00 0.00 0.00 93 1018.9
20260901021823 74 0.0 0.0 0.00 0.00 0.00 94 1018.4
20260901021546 74 0.0 0.0 0.00 0.00 0.00 93 1018.8
20260901021329 74 0.0 0.0 0.00 0.00 0.00 93 1018.3
20260901021025 74 0.0 0.0 0.00 0.00 0.00 93 1018.7
20260901020816 74 0.0 0.0 0.00 0.00 0.00 93 1018.3
20260901020526 74 0.0 0.0 0.00 0.00 0.00 93 1018.7
20260901020324 74 0.0 0.0 0.00 0.00 0.00 93 1018.2
20260901020108 74 0.0 0.0 0.00 0.00 0.00 93 1018.7
20260901015832 74 0.0 0.0 0.00 0.00 0.00 93 1018.3
20260901015524 74 0.0 0.0 0.00 0.00 0.00 93 1018.7
20260901015321 74 0.0 0.0 0.00 0.00 0.00 93 1018.3
20260901015026 74 0.0 0.0 0.00 0.00 0.00 92 1018.7
20260901014830 75 0.0 0.0 0.00 0.00 0.00 93 1018.3
20260901014550 74 0.0 0.0 0.00 0.00 0.00 92 1018.8
20260901014322 75 0.0 0.0 0.00 0.00 0.00 93 1018.4
20260901014024 74 0.0 0.0 0.00 0.00 0.00 92 1018.9
20260901013830 75 0.0 0.0 0.00 0.00 0.00 93 1018.4
20260901013526 74 0.0 0.0 0.00 0.00 0.00 92 1018.8
20260901013321 75 0.0 0.0 0.00 0.00 0.00 93 1018.3
20260901013042 75 0.0 0.0 0.00 0.00 0.00 92 1018.8
20260901012813 75 0.0 0.0 0.00 0.00 0.00 92 1018.2
20260901012527 75 0.0 0.0 0.00 0.00 0.00 92 1018.7
20260901012328 75 0.0 0.0 0.00 0.00 0.00 92 1018.2
20260901012028 75 0.0 0.0 0.00 0.00 0.00 92 1018.7
20260901011822 75 0.0 0.0 0.00 0.00 0.00 92 1018.2
20260901011552 75 0.0 0.0 0.00 0.00 0.00 92 1018.7
20260901011317 75 0.0 0.0 0.00 0.00 0.00 92 1018.2
20260901011025 75 0.0 0.0 0.00 0.00 0.00 91 1018.6
20260901010830 76 0.0 0.0 0.00 0.00 0.00 92 1018.2
20260901010527 75 0.0 0.0 0.00 0.00 0.00 91 1018.7
20260901010321 76 0.0 0.0 0.00 0.00 0.00 92 1018.2
20260901010052 75 0.0 0.0 0.00 0.00 0.00 91 1018.7
20260901005854 76 0.0 0.0 0.00 0.04 0.00 92 1018.1
20260901005523 76 0.0 0.0 0.00 0.04 0.00 91 1018.6
20260901005325 76 0.0 0.0 0.00 0.04 0.00 91 1018.1
20260901005024 76 0.0 0.0 0.00 0.04 0.00 91 1018.4
20260901004819 76 0.0 0.0 0.00 0.04 0.00 91 1017.9
20260901004556 76 0.0 0.0 0.00 0.04 0.00 90 1018.5
20260901004331 77 0.0 0.0 0.00 0.04 0.00 91 1017.9
20260901004025 76 0.0 0.0 0.00 0.04 0.00 90 1018.4
20260901003823 77 0.0 0.0 0.00 0.04 0.00 91 1017.9
20260901003525 76 0.0 0.0 0.00 0.04 0.00 90 1018.5
20260901003314 77 0.0 0.0 0.00 0.04 0.00 90 1017.9
20260901003046 76 0.0 0.0 0.00 0.04 0.00 90 1018.5
20260901002825 77 0.0 0.0 0.00 0.04 0.00 90 1017.9
20260901002524 77 0.0 0.0 0.00 0.04 0.00 90 1018.4
20260901002337 77 0.0 0.0 0.00 0.04 0.00 90 1017.8
20260901002025 77 0.0 0.0 0.00 0.04 0.00 89 1018.3
20260901001815 77 0.0 0.0 0.00 0.04 0.00 90 1017.7
20260901001553 77 0.0 0.0 0.00 0.04 0.00 89 1018.3
20260901001345 78 0.0 0.0 0.00 0.04 0.00 89 1017.7
20260901001026 77 0.0 0.0 0.00 0.04 0.00 88 1018.3
20260901000822 78 0.0 0.0 0.00 0.04 0.00 88 1017.7
20260901000524 78 0.0 0.0 0.00 0.04 0.00 88 1018.3
20260901000316 78 0.0 0.0 0.00 0.04 0.00 88 1017.7
20260831235829 78 0.0 0.0 0.00 0.12 0.00 88 1017.7
20260831235525 78 0.0 0.0 0.00 0.12 0.00 87 1018.3
20260831235344 79 0.0 0.0 0.00 0.12 0.00 88 1017.7
20260831235026 78 0.0 0.0 0.00 0.12 0.00 87 1018.2
20260831234815 79 0.0 0.0 0.00 0.12 0.00 87 1017.7
20260831234555 79 0.0 0.0 0.00 0.12 0.00 87 1018.3
20260831234332 79 0.0 0.0 0.00 0.12 0.00 87 1017.7
20260831234026 79 0.0 0.0 0.00 0.12 0.00 87 1018.2
20260831233825 80 0.0 0.0 0.00 0.12 0.00 88 1017.6
20260831233527 79 0.0 0.0 0.00 0.12 0.00 87 1018.2
20260831233337 80 0.0 0.0 0.00 0.12 0.00 88 1017.6
20260831233045 79 0.0 0.0 0.00 0.12 0.00 87 1018.2
20260831232525 79 0 0.0 0.0 0.00 0.12 0.00 87 1018.2
20260831232314 80 115 0.0 0.0 0.00 0.12 0.00 87 1017.7
20260831232029 80 0 0.0 0.0 0.00 0.12 0.00 86 1018.3
20260831231831 80 115 0.0 0.0 0.00 0.12 0.00 86 1017.8
20260831231549 80 0 0.0 0.0 0.00 0.12 0.00 86 1018.3
20260831231322 80 115 0.0 0.0 0.00 0.12 0.00 86 1017.7
20260831231027 80 0 0.0 0.0 0.00 0.12 0.00 86 1018.3
20260831230814 80 115 0.0 0.0 0.00 0.12 0.00 87 1017.7
20260831230524 80 0 0.0 0.0 0.00 0.12 0.00 86 1018.3
20260831230351 80 115 0.0 0.0 0.00 0.12 0.00 87 1017.8
20260831230049 80 0 0.0 0.0 0.00 0.12 0.00 85 1018.4
20260831225823 81 115 0.0 0.0 0.00 0.12 0.00 86 1017.8
20260831225529 80 0 0.0 0.0 0.00 0.12 0.00 85 1018.5
20260831225316 81 115 0.0 0.0 0.00 0.12 0.00 85 1017.9
20260831225028 80 0 0.0 0.0 0.00 0.12 0.00 85 1018.5
20260831224829 81 115 0.0 0.0 0.00 0.12 0.00 86 1018.0
20260831224546 80 0 0.0 0.0 0.00 0.12 0.00 85 1018.6
20260831224324 81 115 0.0 0.0 0.00 0.12 0.00 85 1018.0
20260831224025 81 0 0.0 0.0 0.00 0.12 0.00 85 1018.6
20260831223820 81 115 0.0 0.0 0.00 0.12 0.00 85 1018.1
20260831223526 81 0 0.0 0.0 0.00 0.12 0.00 85 1018.7
20260831223317 81 115 0.0 0.0 0.00 0.12 0.00 86 1018.2
20260831223053 81 0 0.0 0.0 0.00 0.12 0.00 85 1018.9